Location: Unspecified
(0.0000°N, 0.0000°E)
Time: 00:32:17
(UTC+00:00)

OV3-3 - Visible Passes

Search period start: 19 July 2018 00:00
Search period end: 29 July 2018 00:00
Orbit: 339 x 2248 km, 81.4° (Epoch: 18 July)

Date Brightness Start Highest point End Pass type
(mag) Time Alt. Az. Time Alt. Az. Time Alt. Az.
19 Jul 10.8 04:35:44 10° NE 04:43:31 27° E 04:53:02 10° SE visible
19 Jul 9.6 18:43:03 10° SW 18:45:43 15° W 18:47:55 10° NW visible
20 Jul 10.4 04:44:33 10° NNE 04:53:15 37° E 05:04:11 10° SSE visible
21 Jul 10.0 04:53:41 10° NNE 05:03:01 49° E 05:14:58 10° SSE visible
22 Jul 9.6 05:03:04 10° N 05:12:52 63° E 05:25:29 10° SSE visible
23 Jul 11.5 03:28:34 10° ENE 03:31:43 11° E 03:35:00 10° ESE visible
23 Jul 9.3 05:12:39 10° N 05:22:46 80° E 05:35:45 10° S visible
24 Jul 11.2 03:34:54 10° NE 03:41:26 18° E 03:48:40 10° SE visible
24 Jul 9.1 05:22:25 10° N 05:32:45 83° W 05:45:49 10° S visible
25 Jul 10.8 03:42:56 10° NE 03:51:10 25° E 04:00:34 10° SE visible
25 Jul 9.1 05:32:21 10° NNW 05:42:46 66° W 05:55:40 10° S visible
26 Jul 10.5 03:51:34 10° NNE 04:00:57 33° E 04:11:49 10° SSE visible
26 Jul 9.3 05:42:29 10° NNW 05:52:50 52° W 06:05:18 10° SSW visible
27 Jul 10.1 04:00:35 10° NNE 04:10:45 44° E 04:22:40 10° SSE visible
28 Jul 9.7 04:09:53 10° NNE 04:20:37 56° E 04:33:12 10° SSE visible
